TimeCEST,TemperatureF,Dew PointF,Humidity,Sea Level PressureIn,VisibilityMPH,Wind Direction,Wind SpeedMPH,Gust SpeedMPH,PrecipitationIn,Events,Conditions,WindDirDegrees,DateUTC
12:00 AM,66.2,62.6,88,29.98,-9999.0,ENE,2.3,-,N/A,,Clear,60,2013-09-26 22:00:00
12:30 AM,66.2,62.6,88,29.98,-9999.0,NE,4.6,-,N/A,,Clear,50,2013-09-26 22:30:00
1:00 AM,64.4,60.8,88,29.98,-9999.0,NE,3.5,-,N/A,,Clear,40,2013-09-26 23:00:00
1:30 AM,64.4,62.6,94,29.98,-9999.0,NE,3.5,-,N/A,,Clear,50,2013-09-26 23:30:00
2:00 AM,64.4,60.8,88,29.98,6.2,ENE,5.8,-,N/A,,Partly Cloudy,70,2013-09-27 00:00:00
3:30 AM,62.6,60.8,94,29.98,6.2,North,2.3,-,N/A,,Partly Cloudy,10,2013-09-27 01:30:00
4:00 AM,-9999,-9999,N/A,-9999,-9999.0,NNE,1.2,-,N/A,,Unknown,20,2013-09-27 02:00:00
4:30 AM,62.6,60.8,94,29.95,6.2,Variable,1.2,-,N/A,,Partly Cloudy,0,2013-09-27 02:30:00
5:00 AM,60.8,59.0,94,29.95,6.2,Variable,1.2,-,N/A,,Partly Cloudy,0,2013-09-27 03:00:00
5:30 AM,60.8,57.2,88,29.95,6.2,North,1.2,-,N/A,,Partly Cloudy,350,2013-09-27 03:30:00
6:00 AM,60.8,55.4,82,29.95,6.2,Variable,1.2,-,N/A,,Partly Cloudy,0,2013-09-27 04:00:00
6:30 AM,59.0,53.6,82,29.95,6.2,North,3.5,-,N/A,,Partly Cloudy,10,2013-09-27 04:30:00
7:00 AM,59.0,53.6,82,29.92,6.2,NNE,3.5,-,N/A,,Partly Cloudy,20,2013-09-27 05:00:00
7:30 AM,59.0,53.6,82,29.92,6.2,Calm,Calm,-,N/A,,Partly Cloudy,0,2013-09-27 05:30:00
8:00 AM,59,54,77,29.94,5,NNW,2.3,,,,Haze,340,2013-09-27 06:00:00
8:00 AM,60.8,53.6,77,29.92,6.2,Variable,2.3,-,N/A,,Partly Cloudy,0,2013-09-27 06:00:00
8:30 AM,62.6,57.2,82,29.95,6.2,NNE,3.5,-,N/A,,Partly Cloudy,20,2013-09-27 06:30:00
9:00 AM,66.2,60.8,83,29.95,6.2,NE,5.8,-,N/A,,Partly Cloudy,50,2013-09-27 07:00:00
9:30 AM,69.8,62.6,78,29.95,6.2,NE,10.4,-,N/A,,Partly Cloudy,50,2013-09-27 07:30:00
10:00 AM,75.2,69.8,83,29.95,6.2,ENE,5.8,-,N/A,,Partly Cloudy,70,2013-09-27 08:00:00
10:30 AM,75.2,69.8,83,29.95,-9999.0,ENE,6.9,-,N/A,,Clear,60,2013-09-27 08:30:00
11:00 AM,78.8,68.0,69,29.95,-9999.0,NE,5.8,-,N/A,,Clear,40,2013-09-27 09:00:00
11:30 AM,80.6,66.2,61,29.95,-9999.0,Variable,2.3,-,N/A,,Clear,0,2013-09-27 09:30:00
1:00 PM,87.8,64.4,46,29.92,-9999.0,ESE,8.1,19.6,N/A,,Clear,120,2013-09-27 11:00:00
1:30 PM,89.6,55.4,31,29.92,-9999.0,SE,9.2,-,N/A,,Clear,140,2013-09-27 11:30:00
2:00 PM,91.4,55.4,29,29.92,-9999.0,ESE,6.9,-,N/A,,Clear,120,2013-09-27 12:00:00
2:30 PM,91.4,51.8,26,29.89,-9999.0,SE,6.9,-,N/A,,Clear,140,2013-09-27 12:30:00
3:00 PM,91.4,53.6,28,29.89,-9999.0,SSE,6.9,-,N/A,,Clear,150,2013-09-27 13:00:00
3:30 PM,91.4,53.6,28,29.89,-9999.0,SE,10.4,-,N/A,,Clear,130,2013-09-27 13:30:00
4:00 PM,89.6,55.4,31,29.86,-9999.0,ESE,9.2,-,N/A,,Clear,120,2013-09-27 14:00:00
4:30 PM,89.6,53.6,29,29.86,-9999.0,ESE,8.1,-,N/A,,Clear,110,2013-09-27 14:30:00
5:00 PM,89.6,53.6,29,29.86,-9999.0,SSE,9.2,-,N/A,,Clear,150,2013-09-27 15:00:00
5:30 PM,87.8,55.4,33,29.86,-9999.0,SSE,9.2,-,N/A,,Clear,150,2013-09-27 15:30:00
6:00 PM,86.0,59.0,40,29.86,-9999.0,SSE,9.2,-,N/A,,Clear,150,2013-09-27 16:00:00
6:30 PM,84.2,60.8,45,29.86,-9999.0,SE,9.2,-,N/A,,Clear,140,2013-09-27 16:30:00
7:00 PM,82.4,66.2,58,29.86,-9999.0,SSE,8.1,-,N/A,,Clear,150,2013-09-27 17:00:00
7:30 PM,80.6,66.2,61,29.86,-9999.0,SE,8.1,-,N/A,,Clear,140,2013-09-27 17:30:00
8:00 PM,78.8,68.0,69,29.86,-9999.0,SE,5.8,-,N/A,,Clear,130,2013-09-27 18:00:00
8:30 PM,77.0,68.0,74,29.86,-9999.0,Variable,2.3,-,N/A,,Clear,0,2013-09-27 18:30:00
9:00 PM,77.0,68.0,74,29.86,-9999.0,Variable,2.3,-,N/A,,Clear,0,2013-09-27 19:00:00
9:30 PM,75.2,68.0,78,29.86,6.2,Variable,1.2,-,N/A,,Partly Cloudy,0,2013-09-27 19:30:00
10:00 PM,75.2,68.0,78,29.86,6.2,NE,3.5,-,N/A,,Partly Cloudy,50,2013-09-27 20:00:00
10:30 PM,75.2,69.8,83,29.89,6.2,ENE,4.6,-,N/A,,Partly Cloudy,60,2013-09-27 20:30:00
11:00 PM,75.2,69.8,83,29.86,6.2,ENE,4.6,-,N/A,,Partly Cloudy,60,2013-09-27 21:00:00
11:30 PM,75.2,69.8,83,29.86,6.2,NE,3.5,-,N/A,,Partly Cloudy,50,2013-09-27 21:30:00